Temperature
16 15 15 15 15 15 15 16 16 16 15 15 15 15 15 15 15 15 15 15 15 15 15 15 15 15 15 15 15 15 15 15 15 15 15 15 15 15 15 15 15 15 15
16 15 15 15 15 15 15 15 15 15 15 15 15 15 15 15 15 15 15 15 15 15 15 15 15 15 15 15 15 15 15 15 15 15 15 15 14 14 14 14 14 14 15
15 15 15 15 15 15 15 15 15 15 15 15 15 15 15 15 15 15 15 15 15 15 15 15 15 15 15 15 15 15 15 14 14 14 14 14 14 14 14 14 14 14 14
15 15 15 15 15 15 15 15 15 15 15 15 15 15 15 15 14 15 14 14 15 15 15 15 15 15 14 14 14 14 14 14 14 14 14 14 14 14 14 14 14 14 14
15 15 15 15 15 15 15 15 15 15 15 15 15 15 15 14 14 14 14 14 14 14 14 14 14 14 14 14 14 14 14 14 14 14 14 14 14 14 14 14 14 14 14
14 14 14 15 15 15 15 15 15 15 15 15 15 15 14 14 14 14 14 14 14 14 14 14 14 14 14 14 14 14 14 14 14 13 13 13 13 13 13 14 14 14 14
14 14 14 14 15 15 15 15 15 15 15 15 15 14 14 14 14 14 14 14 14 14 14 14 14 14 14 14 14 13 13 13 13 13 13 13 13 13 13 13 13 13 13
14 14 14 14 14 15 15 15 15 15 15 15 15 15 14 14 14 14 14 14 14 14 14 14 14 13 13 13 13 13 13 13 13 13 13 13 13 13 13 13 13 13 13
13 14 14 14 14 14 14 14 15 15 14 14 14 14 14 14 14 14 14 14 14 14 14 13 13 13 13 13 13 13 13 13 13 12 12 12 12 12 12 13 13 13 13
13 13 14 14 14 14 14 14 14 14 14 14 14 14 14 14 14 14 14 14 14 13 13 13 13 13 13 13 13 12 12 12 12 12 12 12 12 12 12 12 12 12 12
13 13 13 13 14 14 14 14 14 14 14 14 14 14 14 14 14 14 14 13 13 13 13 13 13 13 13 12 12 12 12 12 12 12 12 12 12 12 12 12 12 12 12
13 13 13 13 13 13 13 13 14 14 14 14 14 13 13 14 13 13 13 13 13 13 13 13 13 12 12 12 12 12 12 12 12 12 12 11 11 11 12 12 12 12 12
13 13 13 13 13 13 13 13 13 13 13 13 13 13 13 13 13 13 13 13 13 13 13 12 12 12 12 12 12 12 12 12 11 11 11 11 11 11 11 11 11 11 11
13 13 13 13 12 12 13 13 13 13 13 13 13 13 13 13 13 13 13 13 13 12 12 12 12 12 12 11 11 11 11 11 11 11 11 11 11 11 11 11 11 11 11
12 12 12 12 12 12 12 12 12 13 13 13 13 13 13 13 13 12 12 12 12 12 12 12 12 11 11 11 11 11 11 11 11 11 11 11 11 11 11 10 10 10 10
12 12 12 12 12 12 12 12 12 12 12 12 12 12 12 12 12 12 12 12 12 12 12 11 11 11 11 11 11 11 11 11 10 10 10 10 10 10 10 10 10 10 10
12 12 12 12 12 12 12 12 12 12 12 12 12 12 12 12 12 12 12 12 11 11 11 11 11 11 11 10 10 10 10 10 10 10 10 10 10 10 10 10 9 9 9
12 12 12 11 11 12 11 11 11 11 11 11 12 11 11 11 11 11 11 11 11 11 11 11 11 10 10 10 10 10 10 10 10 10 10 10 10 9 9 9 9 9 9
11 11 11 11 11 11 11 11 11 11 11 11 11 11 11 11 11 11 11 11 11 11 10 10 10 10 10 10 10 10 9 9 9 9 9 9 9 9 9 9 9 9 9
11 11 11 11 11 11 11 11 11 11 11 11 11 11 11 11 11 11 10 10 10 10 10 10 10 10 10 9 9 9 9 9 9 9 9 9 9 9 8 8 8 8 8
11 10 11 11 11 11 11 11 11 11 10 10 10 10 10 10 10 10 10 10 10 10 10 10 9 9 9 9 9 9 9 9 9 9 8 8 8 8 8 8 8 8 8
11 11 11 10 10 10 11 11 11 10 10 10 10 10 10 10 10 10 10 9 9 9 9 9 9 9 9 9 9 9 8 8 8 8 8 8 8 8 7 7 7 7 7
11 11 11 10 10 10 10 10 10 10 10 10 10 10 10 9 9 9 9 9 9 9 9 9 9 8 9 8 8 8 8 8 8 8 8 8 7 7 7 7 7 7 7
11 11 10 10 10 10 10 10 10 10 10 10 10 9 9 9 9 9 9 9 8 8 8 8 8 8 8 8 8 8 7 7 7 7 7 7 7 7 7 6 6 6 6
11 10 10 10 10 10 10 10 10 10 9 9 9 9 9 9 8 8 8 8 8 8 8 8 8 8 8 8 7 7 7 7 6 6 6 7 7 7 6 6 6 6 6
10 10 10 10 10 10 10 9 9 9 9 9 9 9 8 8 8 8 8 8 8 8 7 8 7 7 7 7 7 7 6 6 6 6 5 6 6 6 6 6 6 5 5
Wind_Speed
2 5 9 10 10 11 11 10 11 11 11 11 12 12 12 11 11 11 11 11 10 10 10 11 11 11 11 11 11 11 11 11 11 11 10 9 8 8 8 8 8 7 8
5 7 10 10 10 11 11 11 11 10 10 11 11 12 11 11 11 11 10 10 10 10 10 10 10 10 11 11 11 11 11 11 11 11 10 9 8 8 7 7 7 6 7
6 8 11 11 10 10 11 11 11 11 10 10 11 11 11 11 10 10 10 10 10 10 10 10 10 10 10 10 10 10 10 10 10 10 10 8 7 8 8 7 7 7 7
6 8 9 11 11 10 11 11 11 11 10 10 10 10 10 10 10 10 9 9 9 9 10 10 10 10 10 10 10 10 10 10 10 10 9 8 7 7 8 8 7 6 7
5 7 9 11 11 11 10 11 11 10 10 10 10 9 10 10 10 9 9 9 9 9 9 10 10 10 10 10 10 10 11 11 11 11 10 9 8 8 8 8 7 6 6
4 6 9 10 10 10 10 10 10 10 10 10 9 9 9 9 9 9 9 9 10 10 10 10 10 10 10 10 10 10 11 11 11 10 10 9 7 8 8 8 7 7 7
4 6 8 10 10 10 10 10 10 10 10 10 9 9 9 9 9 9 9 9 9 9 9 9 10 10 10 10 10 11 11 11 11 10 9 9 8 8 8 8 8 7 7
4 5 7 10 10 9 9 10 10 9 9 9 9 9 9 9 9 9 9 9 9 9 9 9 9 10 10 11 11 11 12 11 10 9 9 8 8 8 8 8 8 8 8
4 4 4 7 8 9 8 9 10 9 9 9 9 9 9 9 9 9 8 8 9 9 9 9 9 10 11 11 11 12 12 12 11 9 9 8 8 8 8 8 8 8 8
2 3 4 6 6 7 7 8 10 9 9 8 9 9 10 9 9 8 8 8 9 9 9 9 10 11 11 12 11 11 11 11 11 10 9 9 9 9 9 8 8 8 8
2 2 3 4 5 6 6 7 9 9 9 8 8 9 9 9 8 8 8 8 9 9 10 10 10 12 12 12 12 12 11 10 10 9 9 9 9 9 9 9 9 9 8
4 3 3 4 5 5 5 5 6 7 7 8 8 9 9 9 8 8 8 9 9 10 10 10 10 11 11 10 10 10 9 10 9 8 8 10 9 9 9 9 8 8 8
5 4 3 4 5 5 5 5 5 6 7 7 8 8 9 9 8 8 8 8 8 9 9 9 10 10 10 9 9 9 9 8 7 7 9 10 9 9 9 9 8 8 8
5 4 4 4 4 5 5 5 5 5 5 5 7 8 8 6 6 6 6 6 7 7 7 8 8 8 9 9 8 8 8 7 7 7 8 10 9 9 9 9 9 8 8
5 5 5 4 5 6 5 4 4 4 5 6 7 7 8 6 5 5 5 6 6 6 6 6 6 6 7 7 7 7 7 7 7 7 7 10 10 10 9 9 10 10 10
6 5 4 5 5 6 4 3 4 5 5 6 6 7 8 8 6 5 4 4 5 5 5 6 6 5 5 5 5 6 6 6 7 7 7 8 10 11 10 10 10 11 11
5 5 5 5 5 5 5 5 5 5 5 5 5 6 7 8 7 6 4 3 3 5 6 6 6 6 4 4 4 5 5 5 6 7 7 8 9 10 11 11 11 11 11
4 5 5 5 5 5 5 5 5 5 5 5 6 6 6 8 8 7 5 3 4 5 5 4 3 3 3 3 3 3 3 4 5 6 7 8 8 8 10 11 11 11 11
4 5 5 5 6 6 5 5 6 5 5 4 5 5 6 7 7 6 5 4 5 5 4 3 3 3 3 3 2 2 3 3 3 4 5 6 7 8 8 9 10 11 11
3 4 5 5 6 6 5 4 4 4 3 4 3 4 5 6 7 6 4 4 5 4 3 3 3 3 3 2 2 3 3 2 2 3 3 4 5 6 7 8 9 9 10
3 4 4 5 6 6 4 4 4 3 2 2 2 3 4 5 6 6 4 3 3 3 3 3 3 4 3 2 2 2 3 3 2 2 3 3 4 5 6 7 7 7 8
5 5 5 5 5 5 4 3 3 3 3 2 3 3 3 4 4 5 5 3 3 3 4 3 3 2 2 2 2 2 2 3 2 2 2 2 2 4 5 6 6 7 7
6 6 6 6 6 5 5 4 4 4 3 2 3 2 2 4 4 4 5 4 3 3 3 3 3 3 2 1 2 3 2 2 2 2 1 2 2 2 3 4 4 5 6
5 5 5 6 6 6 6 6 6 5 4 4 3 3 3 3 4 4 4 5 4 3 3 2 2 2 3 2 1 2 2 3 1 2 2 2 2 1 2 3 4 5 5
4 4 4 5 5 6 6 7 6 5 3 3 4 4 3 3 3 3 4 4 4 3 3 3 3 3 2 2 2 1 2 2 2 2 2 3 3 2 2 2 3 4 5
2 3 4 5 5 6 6 6 7 7 6 6 5 4 3 2 2 2 3 4 4 3 3 3 3 3 2 2 2 2 2 2 2 2 2 2 3 3 2 2 2 4 4
Wind_Direction
180 177 158 147 146 137 132 129 125 121 116 113 111 110 107 105 102 98 94 90 84 80 79 79 78 75 73 73 73 74 72 69 67 65 64 63 66 70 72 74 73 70 73
163 167 156 147 144 141 134 129 126 123 121 118 117 114 111 107 105 102 97 93 88 84 80 79 77 75 73 72 73 71 70 69 66 62 60 60 60 68 73 77 80 79 73
142 154 152 146 143 142 138 133 130 128 124 122 120 117 114 110 107 104 99 94 91 88 84 81 79 78 75 73 72 71 69 67 65 62 58 54 56 66 72 73 84 79 72
139 143 147 145 145 140 141 138 133 132 127 123 121 120 117 114 109 105 102 97 93 89 86 83 81 79 78 76 74 73 71 68 66 64 56 50 52 62 65 67 80 81 74
133 142 148 144 145 142 140 141 136 133 131 126 123 120 119 115 110 107 104 99 95 90 87 87 84 82 78 75 75 75 74 71 67 63 55 49 50 59 64 66 70 75 72
132 141 147 145 143 141 141 141 141 136 134 131 127 122 119 116 112 107 104 99 95 91 88 88 84 82 76 74 75 77 77 73 68 61 52 46 46 60 64 66 65 66 64
144 143 148 150 146 140 141 144 141 141 135 135 131 125 120 114 111 104 102 100 97 93 90 87 84 83 78 76 77 79 78 75 69 60 50 41 44 62 64 64 64 63 61
145 142 154 155 151 144 142 148 145 141 139 137 132 124 118 114 108 106 102 103 99 95 92 89 85 84 82 81 80 81 78 74 67 56 45 37 43 56 58 57 58 57 56
128 127 130 143 152 150 144 150 148 143 138 137 134 126 117 112 109 104 104 104 103 97 93 90 88 87 86 84 82 81 77 71 64 52 43 39 47 57 58 56 57 56 54
114 125 123 124 133 137 140 148 149 144 137 134 135 129 118 109 107 102 101 105 103 98 95 92 90 88 86 85 83 81 74 66 57 49 40 40 50 56 61 59 58 57 55
146 144 138 131 129 134 136 139 144 140 135 128 130 129 119 108 103 95 95 103 102 99 97 94 90 88 84 81 82 78 71 63 57 45 35 37 47 53 57 58 57 55 52
190 180 164 154 147 137 136 126 124 127 125 123 123 125 118 109 103 98 94 97 101 97 95 91 89 86 81 76 74 72 66 62 55 42 33 36 43 48 54 59 56 53 51
195 186 177 170 153 141 135 131 124 121 119 119 121 121 119 108 100 93 87 83 86 88 84 83 80 78 79 77 72 68 65 63 55 44 33 37 41 47 52 56 54 50 49
193 196 183 171 165 154 146 141 137 131 125 120 124 127 123 110 98 93 85 83 78 82 82 81 79 79 79 78 77 73 66 62 55 45 35 37 41 46 46 50 51 49 48
201 196 190 173 176 158 146 148 140 137 138 135 131 131 132 123 118 107 93 87 81 83 88 86 83 81 76 75 75 76 68 62 58 52 39 39 42 44 44 45 48 53 54
208 200 192 179 176 158 151 146 147 140 141 134 131 138 138 132 126 117 102 91 81 85 93 98 95 88 79 77 70 70 68 63 60 56 50 44 42 43 44 47 46 46 47
207 195 191 178 163 156 151 150 145 145 141 138 135 140 139 136 134 126 116 103 92 99 97 93 92 85 80 72 68 63 63 60 60 57 54 50 47 44 45 47 45 42 40
197 188 187 176 160 159 154 148 141 139 135 138 138 140 143 139 137 129 122 115 109 103 96 93 97 87 75 72 65 52 55 57 58 59 60 57 53 48 45 47 45 41 37
193 180 173 161 158 158 145 137 132 131 128 130 137 140 143 140 139 128 124 120 116 101 89 101 84 100 93 76 71 55 48 49 46 56 58 58 56 53 48 45 41 37 33
185 174 165 158 150 140 127 120 114 111 113 123 127 139 144 143 140 126 117 121 118 110 98 99 93 81 95 95 79 53 35 31 45 51 50 55 56 53 48 44 38 33 29
163 163 166 160 154 149 144 145 139 142 137 127 133 137 136 142 141 132 127 117 117 122 123 120 110 88 70 72 75 38 18 29 48 45 43 52 47 44 44 38 32 27 19
182 177 173 170 163 165 161 143 129 126 127 124 121 122 137 138 141 137 137 136 122 120 116 113 115 112 79 70 104 100 16 349 1 30 31 54 37 29 26 19 16 13 7
189 187 189 180 168 162 143 118 103 93 88 99 108 114 136 146 141 137 139 138 132 124 131 129 126 132 129 60 74 128 136 230 300 328 357 26 17 18 2 352 355 356 355
203 189 184 174 164 159 150 150 147 151 157 169 144 136 125 140 144 142 144 143 138 129 133 137 123 130 135 136 82 62 111 146 158 313 321 343 349 343 328 333 330 329 339
199 182 181 165 159 156 158 164 155 147 145 128 119 125 124 112 125 137 143 138 135 135 138 133 125 125 137 151 150 128 96 81 108 164 273 309 326 300 291 298 297 301 316
174 172 172 162 159 155 157 159 158 155 147 138 137 142 139 125 111 124 135 138 141 140 144 145 138 134 139 143 145 151 156 157 171 173 224 261 286 289 292 285 275 284 299
Height
1517 1519 1521 1523 1524 1526 1527 1528 1529 1530 1530 1531 1532 1532 1533 1533 1534 1534 1534 1535 1535 1535 1536 1536 1536 1536 1537 1537 1537 1538 1538 1539 1539 1540 1540 1541 1541 1541 1542 1542 1542 1542 1543
1516 1519 1521 1522 1524 1525 1526 1528 1529 1530 1530 1531 1532 1532 1533 1534 1534 1534 1535 1535 1535 1535 1536 1536 1536 1536 1537 1537 1537 1538 1538 1539 1540 1540 1541 1541 1542 1542 1542 1543 1543 1543 1543
1516 1518 1520 1522 1523 1525 1526 1527 1528 1530 1530 1531 1532 1532 1533 1534 1534 1534 1535 1535 1535 1535 1536 1536 1536 1536 1537 1537 1537 1538 1539 1539 1540 1540 1541 1542 1542 1542 1543 1543 1543 1543 1544
1516 1518 1520 1521 1523 1524 1526 1527 1528 1529 1530 1531 1532 1533 1533 1534 1534 1534 1535 1535 1535 1535 1536 1536 1536 1536 1537 1537 1538 1538 1539 1539 1540 1541 1541 1542 1542 1543 1543 1543 1543 1544 1544
1516 1518 1519 1521 1523 1524 1525 1527 1528 1529 1530 1531 1532 1532 1533 1533 1534 1534 1535 1535 1535 1535 1536 1536 1536 1537 1537 1537 1538 1538 1539 1539 1540 1541 1541 1542 1542 1543 1543 1543 1543 1544 1544
1516 1517 1519 1521 1522 1524 1525 1526 1527 1529 1530 1531 1531 1532 1533 1533 1534 1534 1535 1535 1536 1536 1536 1536 1537 1537 1537 1538 1538 1539 1539 1539 1540 1541 1541 1542 1542 1543 1543 1543 1543 1544 1544
1515 1517 1519 1520 1522 1523 1524 1526 1527 1528 1529 1530 1531 1532 1533 1533 1534 1534 1535 1535 1536 1536 1536 1537 1537 1537 1538 1538 1539 1539 1539 1540 1540 1541 1541 1542 1542 1542 1542 1543 1543 1543 1544
1515 1517 1518 1520 1521 1522 1523 1525 1526 1527 1528 1529 1531 1532 1532 1533 1534 1534 1535 1536 1536 1536 1537 1537 1537 1537 1538 1538 1539 1539 1540 1540 1540 1541 1541 1542 1542 1542 1542 1542 1542 1543 1543
1514 1516 1517 1519 1520 1521 1522 1524 1525 1527 1528 1529 1530 1531 1532 1533 1533 1534 1535 1536 1536 1537 1537 1537 1537 1538 1538 1539 1539 1540 1540 1540 1541 1541 1541 1542 1542 1542 1542 1542 1542 1542 1542
1513 1514 1516 1517 1519 1520 1521 1523 1524 1526 1527 1528 1530 1531 1532 1532 1533 1534 1535 1536 1536 1537 1537 1537 1538 1538 1539 1539 1540 1540 1540 1541 1541 1541 1541 1542 1542 1542 1541 1541 1541 1541 1541
1511 1513 1514 1515 1517 1519 1520 1521 1523 1525 1526 1528 1529 1530 1531 1532 1533 1534 1535 1535 1536 1537 1537 1538 1538 1538 1539 1539 1540 1540 1541 1541 1541 1541 1541 1542 1542 1542 1541 1541 1541 1541 1541
1508 1510 1512 1513 1515 1517 1519 1520 1521 1523 1525 1527 1528 1529 1530 1531 1532 1533 1534 1535 1536 1537 1537 1538 1538 1539 1539 1539 1540 1540 1541 1541 1541 1541 1541 1541 1542 1541 1541 1541 1541 1540 1540
1506 1508 1509 1512 1513 1515 1517 1519 1520 1522 1524 1525 1527 1528 1529 1530 1531 1533 1533 1534 1535 1536 1537 1537 1538 1538 1539 1539 1540 1540 1540 1541 1541 1541 1541 1541 1541 1541 1541 1541 1541 1540 1540
1504 1506 1507 1510 1511 1514 1515 1517 1518 1520 1522 1524 1525 1527 1528 1529 1530 1532 1533 1534 1535 1536 1536 1537 1538 1538 1539 1539 1540 1540 1540 1540 1541 1541 1541 1541 1541 1541 1541 1541 1540 1540 1539
1502 1503 1505 1507 1509 1511 1513 1515 1517 1519 1521 1522 1524 1526 1527 1528 1529 1531 1532 1533 1534 1535 1536 1537 1537 1538 1538 1539 1539 1540 1540 1540 1540 1540 1540 1540 1540 1540 1540 1540 1540 1539 1539
1499 1501 1503 1504 1507 1509 1511 1513 1516 1518 1519 1521 1523 1524 1526 1527 1528 1529 1531 1532 1533 1534 1535 1536 1537 1537 1538 1538 1539 1539 1539 1540 1540 1540 1540 1540 1540 1540 1540 1540 1539 1539 1538
1497 1498 1500 1502 1505 1507 1509 1512 1514 1516 1518 1519 1521 1523 1524 1526 1527 1529 1530 1531 1532 1533 1534 1535 1536 1537 1537 1538 1538 1539 1539 1539 1539 1539 1539 1539 1539 1539 1539 1539 1538 1538 1538
1495 1496 1498 1500 1502 1505 1507 1510 1512 1514 1516 1518 1519 1521 1523 1524 1526 1527 1529 1530 1531 1532 1533 1534 1535 1535 1536 1537 1537 1538 1538 1538 1538 1538 1538 1538 1538 1538 1538 1538 1537 1537 1536
1493 1494 1496 1498 1501 1503 1505 1508 1510 1513 1514 1517 1518 1520 1521 1523 1525 1526 1528 1529 1530 1531 1532 1533 1533 1534 1535 1535 1536 1537 1537 1537 1537 1537 1537 1537 1537 1537 1537 1537 1536 1536 1535
1491 1493 1494 1496 1498 1501 1503 1506 1508 1511 1513 1515 1516 1518 1520 1521 1523 1525 1526 1527 1528 1529 1530 1531 1532 1532 1533 1534 1535 1535 1536 1536 1536 1536 1536 1536 1536 1536 1536 1535 1535 1534 1534
1489 1490 1492 1493 1496 1499 1501 1503 1505 1508 1511 1513 1515 1516 1518 1520 1522 1523 1525 1526 1527 1527 1528 1529 1530 1531 1531 1532 1533 1533 1534 1534 1534 1534 1535 1535 1535 1534 1534 1534 1533 1533 1532
1486 1488 1490 1492 1494 1497 1499 1501 1504 1506 1508 1511 1513 1515 1516 1518 1519 1521 1523 1524 1525 1526 1526 1527 1528 1529 1529 1530 1531 1531 1532 1533 1532 1533 1533 1533 1533 1533 1533 1532 1531 1530 1530
1484 1485 1487 1490 1492 1495 1497 1499 1501 1503 1506 1508 1510 1513 1515 1516 1518 1519 1521 1522 1523 1524 1525 1525 1526 1527 1528 1528 1529 1530 1530 1530 1530 1531 1530 1531 1531 1531 1530 1530 1529 1528 1527
1482 1484 1486 1488 1490 1493 1495 1497 1499 1501 1504 1506 1508 1511 1513 1514 1516 1517 1519 1520 1521 1522 1523 1524 1524 1525 1526 1526 1527 1527 1528 1528 1528 1528 1528 1528 1528 1528 1528 1527 1527 1526 1525
1480 1482 1484 1486 1488 1490 1493 1495 1497 1500 1503 1505 1507 1509 1511 1513 1514 1515 1516 1517 1518 1520 1521 1522 1522 1523 1524 1524 1524 1524 1525 1525 1525 1525 1524 1525 1525 1525 1525 1525 1524 1523 1522
1478 1480 1482 1484 1486 1488 1491 1493 1495 1498 1501 1503 1504 1506 1508 1510 1512 1513 1514 1515 1516 1517 1518 1519 1520 1520 1521 1521 1522 1522 1522 1522 1522 1522 1521 1521 1521 1521 1521 1521 1521 1520 1519